This is the latest recevied weather packets stored in our database for station/object VA3XLT-1. If no packets are shown the sender has not sent any weather packets the latest 1 day(s).
| Time | Temp. | Humidity | Pressure | Rain* | Wind** | Luminosity | Snow |
|---|---|---|---|---|---|---|---|
| 1778075555 | 7.78° C | 80% | 1011.2 hPa | 0 mm | - | - | - |
| 1778074955 | 8.33° C | 80% | 1011.1 hPa | 0 mm | - | - | - |
| 1778074655 | 7.78° C | 79% | 1011 hPa | 0 mm | - | - | - |
| 1778074355 | 7.78° C | 78% | 1010.8 hPa | 0 mm | - | - | - |
| 1778073455 | 7.22° C | 81% | 1010.7 hPa | 0 mm | - | - | - |
| 1778073155 | 7.78° C | 83% | 1010.6 hPa | 0 mm | - | - | - |
| 1778072555 | 7.22° C | 81% | 1010.6 hPa | 0 mm | - | - | - |
| 1778072255 | 7.78° C | 82% | 1010.5 hPa | 0 mm | - | - | - |
| 1778071955 | 7.22° C | 84% | 1010.6 hPa | 0 mm | - | - | - |
| 1778071355 | 6.67° C | 87% | 1010.5 hPa | 0 mm | - | - | - |
| 1778071055 | 6.67° C | 85% | 1010.5 hPa | 0 mm | - | - | - |
| 1778069855 | 6.67° C | 89% | 1010.4 hPa | 0 mm | - | - | - |
| 1778066256 | 7.22° C | 87% | 1009.6 hPa | 0 mm | - | - | - |
| 1778064155 | 7.78° C | 90% | 1008.6 hPa | 0 mm | - | - | - |
| 1778062355 | 8.33° C | 94% | 1008.6 hPa | 0 mm | - | - | - |
| 1778057855 | 8.33° C | 92% | 1008.3 hPa | 0 mm | - | - | - |
| 1778051556 | 8.33° C | 93% | 1008.3 hPa | 0 mm | - | - | - |
| 1778051256 | 8.89° C | 94% | 1008.5 hPa | 0 mm | - | - | - |
| 1778050956 | 8.89° C | 94% | 1008.5 hPa | 0 mm | - | - | - |
| 1778050656 | 8.89° C | 94% | 1008.7 hPa | 0 mm | - | - | - |
| 1778050356 | 8.89° C | 94% | 1008.7 hPa | 0 mm | - | - | - |
| 1778049756 | 8.89° C | 94% | 1008.3 hPa | 0 mm | - | - | - |
| 1778049456 | 8.89° C | 95% | 1008.4 hPa | 0 mm | - | - | - |
| 1778049156 | 8.89° C | 95% | 1008.3 hPa | 0 mm | - | - | - |
| 1778048856 | 8.89° C | 95% | 1008.1 hPa | 0 mm | - | - | - |
* Rain latest hour (hover to see other rain measurements)
** Current wind speed in m/s (hover to see current wind gust speed)